Location: Rooftop Observatory
(39.0308°N, 87.1711°W)
Time: 21:25:40
(UTC-05:00)

Daily predictions for brighter satellites

Satellite Brightness Start Highest point End
(mag) Time Altitude Azimuth Time Altitude Azimuth Time Altitude Azimuth
USA 40 PKM 4.2 20:30:50 10° SW 20:34:16 83° SE 20:38:24 10° NE
Meteor 1-29 3.7 20:32:27 10° NNE 20:35:31 32° E 20:38:33 10° SSE
COSMOS 2406 3.2 20:35:22 10° SSW 20:41:05 78° ESE 20:46:49 10° NNE
Cosmos 2082 Rocket 4.0 20:43:04 10° ESE 20:44:18 11° E 20:45:32 10° E
ASTRO E2 4.3 20:43:44 10° WSW 20:46:51 22° SSW 20:49:56 10° SE
Meteor 1-13 Rocket 4.3 20:42:26 10° S 20:48:23 78° E 20:54:17 10° NNE
Cosmos 1975 3.8 20:45:09 10° NNW 20:49:06 49° W 20:53:02 10° SSW
Cosmos 1743 2.7 20:46:04 10° N 20:49:58 76° E 20:53:52 10° S
CZ-4B DEB 2.8 20:48:51 10° SSE 20:51:45 52° ENE 20:54:41 10° N
Cosmos 2112 Rocket 4.0 20:48:14 10° S 20:53:25 71° ESE 20:58:36 10° NNE
Cosmos 1238 Rocket 4.3 20:49:00 10° SSE 20:55:29 53° E 21:01:46 10° NNE
Cosmos 1346 2.9 20:54:24 10° SSW 20:57:09 80° W 20:59:55 10° N
ISS -3.3 20:53:53 10° WSW 20:57:09 64° NW 21:00:26 10° NE
Aureole 3 Rocket 3.6 20:50:59 10° S 20:57:28 77° E 21:02:04 10° NNE
ASTEX 1 3.8 20:55:23 10° SSE 21:00:03 46° E 21:04:44 10° N
OAO 2 Rocket 3.5 20:55:48 10° WSW 21:00:37 54° S 21:05:08 12° ESE
H-2A R/B 3.9 21:00:08 10° E 21:02:56 15° ENE 21:05:47 10° NNE
Helios 1A 3.2 20:59:58 10° S 21:04:10 73° WSW 21:08:23 10° NNW
SJ-11-01 4.3 20:59:50 10° SSE 21:04:30 89° WSW 21:09:14 10° NNW
SAR-Lupe-4 3.6 21:01:35 10° SSE 21:05:09 84° WSW 21:08:47 10° NNW
SL-27 R/B 2.5 21:02:35 10° SSW 21:06:14 89° NW 21:09:54 10° NNE
Cosmos 1939 Rocket 2.9 21:04:48 10° S 21:08:40 77° WSW 21:12:32 10° NNW
YAOGAN 6 2.6 21:06:34 14° SSE 21:09:30 62° ENE 21:12:59 10° N
Cosmos 1666 2.6 21:08:49 10° N 21:12:35 85° W 21:16:14 10° S
Meteor 2-9 Rocket 4.2 21:08:23 10° N 21:13:54 72° E 21:19:13 12° SSE
Cosmos 1680 Rocket 4.1 21:10:51 10° SSW 21:16:00 61° WNW 21:21:11 10° NNE
Okean 1-7 Rocket 3.5 21:12:19 10° S 21:16:45 71° E 21:21:14 10° NNE
DNEPR-1 R/B 3.8 21:15:00 10° NW 21:19:15 70° WSW 21:22:55 16° SSE
Intercosmos 24 3.9 21:17:13 10° N 21:20:53 49° E 21:22:54 22° SSE
Cosmos 2056 Rocket 4.0 21:16:09 10° N 21:21:05 43° ENE 21:24:17 20° SE
Cosmos 1833 Rocket 3.8 21:19:03 18° SE 21:21:17 22° E 21:25:32 10° NE
CZ-3B Rocket 4.4 21:19:11 10° S 21:21:33 13° SSE 21:21:33 13° SSE
Cosmos 1437 Rocket 3.3 21:19:38 10° N 21:23:19 41° ENE 21:25:16 23° SE
Envisat 3.9 21:19:28 10° S 21:24:20 47° W 21:29:15 10° NNW
Cosmos 2341 Rocket 4.5 21:19:07 10° N 21:25:11 45° ENE 21:29:28 19° SE
MetOp-A 4.3 21:23:25 18° SE 21:27:18 57° ENE 21:32:33 10° N
Helios 1B rocket 3.9 21:24:12 10° N 21:28:03 39° WNW 21:31:55 10° SW
Meteor 2-4 Rocket 4.0 21:23:13 10° SSW 21:28:49 71° W 21:34:38 10° N
Cosmos 1606 Rocket 3.8 21:26:51 10° N 21:31:03 48° E 21:33:15 25° SE
PSLV R/B 2.9 21:28:38 10° WNW 21:31:45 78° SSW 21:32:59 34° ESE
Cosmos 405 3.3 21:34:40 10° NNW 21:38:12 62° W 21:40:27 20° S
Cosmos 1726 Rocket 3.8 21:36:33 10° N 21:40:47 51° E 21:42:37 30° SE
Cosmos 1025 Rocket 3.3 21:36:45 10° SSW 21:40:59 67° W 21:45:15 10° N
USA 245 3.2 21:42:20 32° ENE 21:42:20 32° ENE 21:44:19 10° N
Cosmos 1515 3.7 21:40:59 29° SSE 21:42:39 57° E 21:46:24 10° NNE
COSMOS 2487 2.8 21:43:44 37° SE 21:44:24 42° ESE 21:47:49 10° NNE
NOSS 8 (F) 4.3 21:44:19 10° SSW 21:47:52 76° ESE 21:51:25 10° NE
CZ-3A R/B 0.3 21:45:21 10° SW 21:49:33 74° NW 21:50:15 35° NNE
Cosmos 1452 Rocket 4.4 21:48:12 10° N 21:53:01 35° ENE 21:55:04 26° ESE
Cosmos 1980 Rocket 4.0 21:49:43 10° N 21:53:37 19° NE 21:56:23 14° E
SPOT 1/Viking Rocket 3.8 21:51:40 29° SE 21:54:00 52° ENE 21:59:00 10° N
YAOGAN 11 4.0 21:52:11 32° SSE 21:54:07 82° ENE 21:58:28 10° N
Cosmos 2181 Rocket 4.0 21:49:25 18° S 21:54:14 69° E 22:00:30 10° NNE
Cosmos 2058 Rocket 3.3 21:51:03 10° N 21:55:24 55° E 21:56:51 37° SE
Okean 2 4.0 21:54:01 12° SSW 21:57:40 54° W 22:01:42 10° N
Tiangong 2 2.3 21:56:07 10° WNW 21:59:09 41° N 22:00:58 20° ENE
Cosmos 1371 Rocket 4.4 21:55:29 10° NNW 22:00:43 61° WSW 22:03:45 25° S
ARGOS 3.1 21:58:32 28° SSE 22:01:28 87° E 22:06:56 10° NNW
Cosmos 1295 Rocket 4.4 21:56:56 10° N 22:03:09 75° E 22:06:29 29° SSE
ERS-1 Rocket 3.8 22:01:28 17° SSW 22:05:03 46° W 22:09:52 10° NNW
Nimbus 7 Rocket 4.4 21:59:32 10° NNE 22:05:37 73° ESE 22:09:45 22° S
OE (NEXTSAT) 4.3 22:04:47 10° WNW 22:08:21 84° NNE 22:08:47 67° ESE
Terra 2.8 22:07:57 29° E 22:09:03 32° ENE 22:13:16 10° N
NOSS 8 (H) 4.2 22:08:25 49° SSW 22:09:15 85° ESE 22:12:44 10° NE
SPOT 5 2.6 22:09:29 38° S 22:11:05 74° WSW 22:15:26 10° NNW
Iridium 82 4.5 22:08:22 10° N 22:11:58 74° E 22:12:22 65° SE
H-2A R/B 3.0 22:15:12 33° E 22:15:56 35° ENE 22:20:04 10° N
IGS 5A 4.3 22:18:14 34° E 22:18:32 34° ENE 22:22:18 10° N
Cosmos 1626 Rocket 3.5 22:26:20 58° ESE 22:26:30 58° E 22:30:46 10° NNE
Cosmos 2082 Rocket 2.1 22:23:35 21° SSW 22:27:30 89° WNW 22:33:11 10° NNE
Cosmos 2278 3.8 22:23:37 10° NNW 22:29:18 71° WSW 22:31:16 42° S
SL-19 R/B 4.2 22:27:24 10° NNE 22:32:36 53° E 22:33:15 49° SE
Meteor 1-22 Rocket 4.2 22:28:18 10° N 22:33:34 60° E 22:34:40 49° SE
ISS -0.5 22:32:16 10° NW 22:34:10 14° NNW 22:36:04 10° NNE
SL-8 Rocket 4.0 22:29:37 10° N 22:35:53 81° W 22:38:28 38° S
Cosmos 2366 rocket 3.9 22:35:31 10° N 22:41:42 83° E 22:43:33 48° SSE
H-2A R/B 2.2 22:40:27 44° SSW 22:41:47 61° W 22:46:47 10° NNW
OAO 2 Rocket 4.2 22:40:28 10° W 22:44:05 34° SW 22:44:05 34° SW
Cosmos 2228 3.8 22:41:27 10° NNW 22:45:33 44° W 22:46:19 40° WSW
Cosmos 158 Rocket 4.0 22:46:06 59° ESE 22:46:25 60° ESE 22:51:43 10° NNE
Cosmos 921 Rocket 4.3 22:44:29 10° NW 22:48:29 33° W 22:49:22 30° WSW
Cosmos 2369 4.3 22:43:34 10° NW 22:49:03 49° WSW 22:50:41 38° SSW
Meteor 1-4 Rocket 3.1 22:45:46 10° NNW 22:48:46 53° NW 22:48:46 53° NW
Cosmos 1697 Rocket 2.6 22:44:15 10° NNW 22:49:53 84° ENE 22:50:57 60° SSE
SL-16 R/B 3.9 22:51:37 10° N 22:55:51 21° NE 22:57:38 18° ENE
CZ-4B R/B 3.6 22:51:44 10° NNE 22:56:47 59° ESE 22:56:47 59° ESE
Cosmos 1656 3.9 22:51:43 10° NNW 22:57:04 58° WSW 22:58:04 50° SSW
Cosmos 1842 4.1 22:59:00 42° NE 22:59:00 42° NE 23:01:48 10° NNE
Cosmos 1602 Rocket 3.9 23:01:03 55° W 23:01:23 56° W 23:05:39 10° N
Cosmos 1833 Rocket 3.5 23:00:38 16° SW 23:04:49 47° WNW 23:10:16 10° NNE
Cosmos 1271 Rocket 3.5 23:01:39 10° N 23:04:38 49° NNE 23:04:38 49° NNE
CZ-4 R/B 3.8 23:06:00 10° NNE 23:11:03 84° WNW 23:11:25 76° SW
Cosmos 1269 Rocket 4.0 23:10:47 63° SW 23:11:34 78° WNW 23:16:54 10° NNE
deb Chang Zheng 4 3.9 23:07:21 10° N 23:11:37 61° WNW 23:11:40 61° WNW
Timation 2 Rocket 4.1 23:08:52 32° SW 23:12:00 70° WNW 23:18:10 10° NNE
Meteor 2-8 Rocket 4.4 23:12:40 61° SE 23:13:19 65° E 23:19:26 10° NNE
DELTA 2 DEB (DPAF) 4.4 23:20:03 67° NNE 23:20:03 67° NNE 23:24:02 10° N
Cosmos 1953 3.5 23:16:11 10° N 23:19:02 38° NNE 23:19:02 38° NNE
Cosmos 1420 Rocket 4.3 23:16:06 10° NNW 23:21:14 56° WSW 23:21:26 55° WSW
Cosmos 1048 Rocket 4.4 23:22:40 49° WSW 23:23:37 57° WNW 23:28:44 10° N
CZ-2C R/B 4.4 23:23:18 28° ENE 23:23:54 28° ENE 23:28:37 10° N
Cosmos 1934 Rocket 4.4 23:23:11 10° N 23:29:20 48° ENE 23:29:56 47° E
Cosmos 1110 Rocket 4.4 23:26:50 10° N 23:31:52 52° ENE 23:31:52 52° ENE
Tiangong 2 4.4 23:33:05 10° WNW 23:33:11 11° WNW 23:33:11 11° WNW
Cosmos 2360 Rocket 4.2 23:32:40 10° N 23:36:30 18° NE 23:38:27 16° ENE
Cosmos 1980 Rocket 2.2 23:32:31 10° NNW 23:38:07 66° WSW 23:38:08 66° WSW
SME Rocket 3.7 23:43:00 65° NE 23:43:00 65° NE 23:46:58 10° N
Lacrosse 5 rocket 3.5 23:40:14 10° NNW 23:44:01 24° NNE 23:45:12 22° ENE
Terra 3.4 23:46:50 24° W 23:46:50 24° W 23:50:40 10° NW
Nadezhda 3 Rocket 4.4 23:46:50 49° SW 23:48:10 58° W 23:54:27 10° N
Cosmos 2322 Rocket 2.6 23:43:10 10° NNW 23:48:45 54° ENE 23:48:59 53° ENE
Cosmos 1758 Rocket 4.4 23:50:40 47° N 23:50:40 47° N 23:53:53 10° N
USA 267 3.1 23:45:03 10° NE 23:51:37 85° SE 23:52:59 60° SW
H-2A R/B 4.1 23:52:19 21° W 23:52:19 21° W 23:55:25 10° NW
Cosmos 1470 4.3 23:48:07 10° N 23:50:32 34° N 23:50:32 34° N
